CZ-2C R/B, 54039

Orbit data source: Space-Track

CZ-2C R/B, 54039 is space debris in SSO originally from a launch on Wed, 12 Oct 2022 UTC launched from the Taiyaun Space Center, China (TSC). Debris objects in space refer to the collection of defunct objects orbiting the Earth. Examples of debris include non-operational satellites, rocket bodies, and fragments generated from explosions, collisions, or faulty payload assembly.

Not visible in the next 10 days
Identifier
54039, 2022-132E
Orbit
SSO
Country
Flag of CNCN / PRC
Related business
Manufacturer
CALT
Mission
Spacecraft
Bus & Motor
CZ-2 STAGE 2, Unknown motor
Mass
~3,800 kg wet, ~3,800 kg dry
Launch date (UTC)
2022-10-12 (4 years ago)
Launch vehicle
Unknown
Launch site
Taiyaun Space Center, China (TSC)
Object type
Payload
Rocket body
Debris
Shape & HBR
Cyl, 3.7 m
Radar Cross Section
23.715 m², Large (>1 m²)

Expand to show TLE details & history
Last TLE update: 2 days ago

TLE from 2 days ago
0 CZ-2C R/B
1 54039U 22132E   26170.95396000  .00054114  00000-0  41476-3 0  9999
2 54039  97.2906 178.1016 0015541  75.9448 284.3542 15.71789278206385
Epoch: 2026-06-19T22:53Z
TLE epoch observation values (Epoch: 2026-06-19T22:53:42.143Z)
Latitude
0.00003°
Longitude
-73.49954°
Altitude
354.368 km
Speed
7.698 km/s
True Right ascension
11h 52m 24s
True Declination
0° 00' 00"
Sunlit
Object was in daylight at epoch
Visualization orbit readout
Latitude
Unknown
Longitude
Unknown
Altitude
Unknown
Speed
Unknown
Apparent Right ascension
Unknown
Apparent Declination
Unknown
Sunlit
N/A
Visualization observer readout
Local Sidereal Time
21:27:49
Azimuth
Unknown
Elevation
Unknown
Doppler factor
Unknown
Orbital elements
Apogee altitude
361.133 km
Perigee altitude
340.218 km
Semi-major axis
6,728.812 km
Eccentricity
0.00155
Inclination
97.2906°
RAAN
178.1016°
Arg. of periapsis
75.9448°
True anomaly
284.18159°
Mean anomaly
284.3542°
Eccentric anomaly
284.2679°
Mean motion
3.9322 °/min
Orbital period
91.55 mins
BSTAR
0.00041476
Loading maneuver chart data...
Computing Atmospheric mass density...
Loading historical data...
Loading historical data...
Loading historical data...
Loading historical data...
Loading historical data...
Loading historical data...
Loading historical data...

Documentation

Showing up to 5 results
|